Lid_Strength_Index
2 2 2 2 2 2 2 2 2 2 1 2 2 2 2 2 2 5 9 6 5 4 3 8 10 11 11 12 12 14 17 19 17 17 16 15 15 14 13 14 14 13 13 12 10
1 2 2 2 2 2 2 2 2 2 2 1 2 2 2 2 6 8 5 3 4 4 8 10 11 11 13 13 13 15 18 17 15 16 16 15 15 15 15 15 15 14 12 11 10
1 1 2 2 2 2 2 2 2 2 2 1 2 2 2 4 8 8 3 3 4 5 7 9 9 11 13 13 14 15 17 15 14 14 14 15 15 15 15 15 14 15 13 11 12
1 1 1 1 2 2 2 2 2 2 2 2 2 3 2 6 14 9 4 4 5 7 9 10 11 13 14 15 13 16 14 14 13 13 14 15 14 15 15 14 13 14 11 11 11
1 1 1 1 1 1 1 2 2 2 2 2 3 3 6 10 10 7 4 5 7 8 10 11 12 13 14 14 13 15 14 13 13 13 14 14 14 15 14 13 12 13 12 11 11
1 2 2 1 1 1 2 2 2 2 3 2 3 4 9 12 8 7 8 8 8 10 11 11 12 12 14 14 14 14 14 14 13 14 14 14 15 15 13 13 13 13 13 12 11
-0 0 2 1 1 1 2 3 3 3 3 3 3 6 9 10 8 8 8 9 9 9 11 11 11 13 13 15 13 14 16 15 14 14 15 14 15 15 13 13 13 13 13 13 12
-1 -0 0 1 1 2 3 3 3 3 2 4 4 8 12 9 9 9 8 9 9 9 10 10 10 12 13 13 14 16 17 18 14 14 15 15 17 14 13 15 15 13 14 13 12
-1 -0 -0 -0 1 3 3 3 2 3 3 4 7 9 12 7 10 9 9 10 9 10 10 10 11 14 13 16 17 17 19 18 15 14 15 16 18 14 13 13 13 13 13 13 13
0 1 1 1 2 2 3 3 4 5 5 5 7 11 12 12 10 9 9 9 10 11 11 13 14 16 17 17 20 19 19 17 17 16 16 17 17 15 13 13 14 15 16 15 15
1 1 1 2 3 3 3 5 7 9 9 11 11 12 12 11 9 10 9 10 11 13 16 14 17 18 16 15 15 17 18 19 18 16 17 17 17 15 13 15 16 16 16 16 15
1 1 2 1 1 2 3 6 6 7 11 8 9 10 11 10 13 11 9 13 14 16 15 16 18 15 14 14 15 17 19 19 17 16 17 18 17 16 15 16 16 16 16 16 15
2 2 2 2 2 3 4 5 4 5 10 9 9 10 12 11 13 13 11 13 15 16 16 17 16 14 15 16 17 17 19 19 19 17 17 18 19 18 16 15 15 15 15 15 15
2 2 2 2 3 4 6 4 4 4 13 12 11 11 12 11 14 12 11 13 15 16 15 16 14 15 16 17 16 18 17 17 18 21 22 18 24 19 17 16 15 15 15 15 16
2 3 2 2 4 5 5 4 4 5 20 12 12 10 11 12 14 14 11 13 16 15 15 17 17 16 17 16 15 18 16 18 18 20 23 20 25 20 17 17 17 16 15 16 15
2 3 2 3 4 4 4 4 5 15 20 16 14 15 15 14 14 14 14 12 12 15 15 16 14 15 16 15 15 15 17 17 18 20 24 22 22 20 19 18 16 16 15 15 16
2 2 3 2 5 3 3 6 14 18 13 17 17 16 16 17 16 16 17 17 17 20 19 17 16 15 14 17 15 17 18 26 26 26 26 20 21 18 17 16 16 17 16 16 15
2 2 3 4 2 3 4 11 18 14 16 14 15 16 17 15 16 16 18 19 16 17 19 20 22 17 15 17 18 17 18 23 28 27 25 19 25 18 18 19 21 19 19 16 15
2 6 4 4 3 4 9 15 16 14 13 15 15 18 17 16 16 16 17 18 16 15 19 21 20 16 16 15 16 18 20 17 23 26 25 24 19 17 15 18 18 18 15 16 16
5 6 5 3 2 5 11 13 12 11 10 12 16 16 18 18 17 16 17 15 15 14 13 17 21 16 16 15 15 17 16 21 23 29 28 25 23 20 19 20 18 19 17 17 16
6 7 3 1 2 7 13 12 11 9 10 13 14 15 15 17 16 17 16 16 14 14 13 16 19 19 17 21 20 18 20 19 19 23 27 28 24 22 20 19 20 19 17 19 18
6 10 2 1 9 9 12 12 9 10 9 10 11 13 14 14 16 15 16 16 13 13 16 15 18 21 21 18 17 19 21 19 24 26 25 25 23 23 20 21 21 18 16 19 18
8 8 1 2 12 11 9 10 10 11 11 11 12 12 14 16 16 15 16 13 12 14 16 16 19 22 21 18 17 18 17 19 22 23 23 24 23 24 26 22 18 19 20 19 17
7 10 7 5 6 11 11 12 11 9 10 10 10 11 15 17 14 16 15 13 13 13 12 14 19 22 22 23 22 20 19 18 20 24 27 24 26 24 23 22 21 20 20 22 22
7 9 8 11 10 9 9 10 11 12 10 10 11 13 14 17 16 18 15 14 12 12 14 16 21 21 22 18 18 24 21 19 17 22 22 24 23 23 22 20 21 22 23 23 22
8 9 9 9 10 9 9 12 11 12 11 12 14 13 15 16 16 17 15 15 15 13 15 16 21 23 23 25 27 20 22 22 18 17 21 25 20 19 23 28 24 23 24 25 24
7 4 7 11 11 10 12 10 10 9 10 10 11 13 15 15 14 13 12 12 14 16 17 18 21 22 25 24 23 25 22 21 22 25 16 18 19 25 24 25 24 24 22 18 22